User: anonymous   Login
Location: Kunchanapalle
(16.4623°N, 80.6176°E)
Time: 11:51:05
(UTC+00:00)
Language:

Meteor 1-26 Rocket - Orbit

View from above orbital plane
View from above orbital plane
View from above satellite
View from above satellite

Ground track
Ground track

The orbit data is extracted from the following two-line orbital elements,

1  9482U 76102B   20296.50180574 -.00000018 +00000-0 -17288-4 0  9999
2  9482 081.2616 007.9373 0079657 327.8854 031.7475 14.07540620259674
Epoch (UTC): 22 October 2020 12:02:36
Eccentricity: 0.0079657
inclination: 81.2616°
perigee height: 810 km
apogee height: 925 km
right ascension of ascending node: 7.9373°
argument of perigee: 327.8854°
revolutions per day: 14.07540620
mean anomaly at epoch: 31.7475°
orbit number at epoch: 25967

The dashed part of the orbit path shows where the satellite is in the earth's shadow,  

DLR